Back to catalog

STARLINK-30507

AliveCommunicationsVLEO
NORAD 57982·PAYLOAD·🇺🇸 United States

Launched Sep 30, 2023 from Cape Canaveral Space Force Station

Loading…

Next Passes (next 24 hours)

TLE

FreshSource: CelesTrak SupGP

Epoch: Sep 14, 2026, 21:31 UTC

1 57982C 23151U   26257.89701389 -.00066669  00000+0 -24138-2 0  2571
2 57982  43.0025   5.4275 0001698 264.3498  22.0612 15.27623594    18

Track STARLINK-30507 in real time with AllMySat

Download on the App Store